Wind_Speed
12 13 13 12 11 10 9 9 9 9 8 8 7 8 8 8 10 11 12 12 12 12 12 12 12 12 12 12 11 10 10 9 7 7 7 6 5 5 6 8 11 14 16 17 16 14 12 11 12 12 13 14 14 15 15 14 19 20 15 14 16 15 15 14 15 16 12 12 14 13 14 13 12 12 11 11 10 10 9 8 9 9 10 9 8 9 9 10
11 13 13 14 13 12 11 10 9 9 8 8 7 7 7 8 9 11 13 13 13 13 14 14 13 13 13 13 13 12 11 9 6 7 7 6 5 3 3 5 9 12 15 17 17 17 15 12 11 11 12 14 14 15 15 15 19 17 12 15 16 14 17 16 17 18 14 15 16 15 15 14 13 13 11 11 11 11 10 9 9 10 11 11 9 8 8 9
8 11 13 14 14 14 14 12 12 11 10 9 8 7 6 7 8 10 13 15 14 14 15 15 15 15 15 15 14 13 12 8 7 9 8 7 6 4 2 1 5 10 13 16 16 17 16 14 11 9 10 12 13 14 14 14 17 17 13 14 14 13 17 18 18 18 17 17 17 17 16 14 14 13 12 12 11 11 10 10 11 11 12 11 10 9 9 8
5 8 10 12 14 15 15 15 14 13 12 11 10 9 7 7 7 8 11 15 16 15 15 16 16 16 16 16 16 15 13 8 8 10 9 8 6 5 3 2 1 6 11 13 14 15 15 15 12 9 9 9 10 12 14 13 13 15 13 12 12 11 15 19 18 18 19 17 17 17 16 15 14 13 12 11 10 9 10 11 12 12 12 11 10 9 8 8
4 5 7 9 12 14 16 16 16 15 14 13 12 10 9 8 7 7 9 14 17 17 16 16 17 17 17 18 18 17 14 8 10 12 10 9 7 6 5 3 2 2 8 11 12 12 13 14 13 10 9 8 8 10 11 11 13 13 12 13 11 9 14 19 18 18 18 17 17 16 15 16 15 14 13 12 10 9 10 11 12 13 13 12 10 9 8 7
5 5 5 6 9 11 14 16 17 17 16 15 14 12 10 9 8 7 7 11 15 17 17 16 17 18 19 20 20 20 15 9 12 15 12 10 8 7 5 4 4 2 5 9 11 11 12 13 14 13 11 8 7 7 8 9 11 10 9 13 11 9 14 18 17 18 17 16 16 15 16 16 15 14 14 13 12 11 11 11 12 13 13 12 11 10 9 8
6 6 6 6 7 8 11 14 17 18 18 17 16 14 12 10 9 8 8 9 12 16 17 17 17 18 19 21 21 22 19 14 13 14 14 11 8 7 5 5 4 3 2 6 9 10 11 12 14 14 12 9 6 6 7 8 10 9 8 10 12 11 13 16 16 17 16 15 15 15 16 16 14 15 15 13 13 13 12 12 13 12 12 11 11 10 9 7
9 8 8 7 7 7 9 11 15 18 19 19 18 16 14 13 11 10 9 9 11 13 15 17 17 17 19 21 23 22 21 20 15 13 14 12 9 7 6 5 4 3 2 5 7 9 10 11 12 12 10 7 6 6 6 7 8 7 6 8 11 11 11 13 15 16 15 14 15 14 14 15 15 16 15 14 14 14 13 14 14 13 12 11 9 9 8 7
11 10 9 9 9 8 8 9 12 15 18 20 20 19 17 15 13 11 11 11 12 12 13 15 16 17 19 20 23 20 20 23 19 15 14 13 10 8 7 5 4 3 2 4 6 7 9 10 11 11 9 7 6 5 6 7 5 3 4 5 8 8 9 10 12 14 13 14 14 13 13 14 14 15 15 14 14 14 14 14 14 13 12 11 9 8 8 7
13 12 11 11 10 10 9 9 10 13 16 19 20 21 19 17 15 13 12 12 13 13 13 14 15 16 17 20 22 18 21 26 22 18 15 13 12 9 7 6 5 4 2 2 4 5 7 9 10 11 10 9 7 5 5 5 2 2 2 2 4 5 6 8 10 11 12 14 13 12 12 12 13 13 12 14 14 13 14 14 13 13 11 10 10 9 8 8
15 14 13 12 12 11 11 10 10 11 13 17 20 22 21 20 18 15 14 13 13 13 14 14 14 16 16 19 21 19 23 27 24 22 18 14 13 10 9 8 6 5 4 2 2 3 6 7 9 11 9 8 6 5 4 3 3 1 1 0 2 3 4 5 7 8 10 11 10 11 12 11 11 12 12 14 13 12 12 12 12 11 11 10 9 8 8 8
16 15 14 13 13 12 11 11 10 11 12 14 18 21 22 22 20 17 15 14 14 13 13 13 14 15 16 18 21 21 25 27 26 25 21 17 14 12 10 9 8 7 6 2 1 2 4 6 9 10 7 7 5 4 5 3 4 2 2 1 2 2 2 3 4 6 7 8 7 10 11 10 9 10 11 13 13 12 11 11 10 10 10 9 8 8 8 7
16 16 15 14 13 13 12 11 11 11 12 13 16 19 22 23 22 20 18 15 14 14 13 12 12 13 14 17 19 20 25 28 27 27 25 21 17 14 12 10 10 9 7 4 2 1 2 5 7 8 8 7 3 3 6 6 6 5 4 3 2 1 3 4 3 3 5 5 7 9 8 6 7 7 9 11 12 13 12 10 10 9 9 9 8 8 7 7
15 15 15 15 14 13 12 12 12 11 12 13 14 17 21 23 24 22 20 17 15 14 14 13 11 11 13 16 17 19 25 28 29 28 26 24 20 16 13 11 11 10 8 5 3 3 1 3 5 7 8 7 5 5 7 7 7 5 5 5 3 3 5 7 5 1 2 3 5 8 5 2 4 7 6 8 10 12 12 10 9 8 7 7 7 7 7 7
14 15 15 15 14 13 13 12 12 12 12 12 13 16 20 23 24 23 22 19 16 15 14 14 12 11 11 12 14 19 24 28 30 30 28 26 22 18 15 13 12 11 9 6 5 4 3 3 4 6 8 9 8 5 4 2 4 5 3 2 4 3 4 9 8 3 2 2 2 6 4 1 2 5 5 6 8 10 12 10 9 8 6 6 6 6 6 6
13 14 14 15 14 13 13 12 12 12 12 12 13 15 18 22 23 24 23 21 18 16 14 14 14 12 11 10 13 18 22 27 31 32 30 28 24 20 17 15 14 12 10 9 8 6 5 6 5 6 7 8 6 3 1 2 3 5 1 2 3 3 3 6 8 5 4 3 1 3 4 0 1 3 4 5 6 10 11 9 9 8 6 5 5 5 5 4
12 13 14 14 14 13 13 12 12 12 12 12 12 13 16 20 22 23 23 22 20 17 15 15 14 14 12 10 12 17 20 25 30 33 32 30 26 21 18 16 15 13 12 10 10 9 8 7 6 6 6 5 3 2 4 3 1 1 2 4 3 4 4 5 7 7 5 5 4 1 3 3 4 1 3 3 5 8 9 8 7 7 5 4 4 4 4 3
12 12 13 14 13 13 12 12 12 11 11 11 11 12 14 18 21 22 23 23 22 19 16 16 15 14 12 11 12 14 17 21 28 33 33 32 28 23 19 17 16 15 13 12 11 10 9 8 6 6 7 6 3 3 6 7 9 7 6 6 4 4 5 5 6 7 5 5 6 5 2 4 6 1 3 3 4 5 6 6 6 5 4 4 3 3 3 3
11 12 13 13 12 12 12 11 11 10 10 10 9 9 11 15 18 20 22 23 23 21 18 17 17 15 10 10 11 12 13 17 24 31 33 32 29 24 21 18 17 15 12 12 12 11 9 8 8 9 8 5 2 4 8 10 12 11 8 6 4 4 5 5 7 8 5 5 7 7 4 5 6 4 1 3 4 4 4 4 4 4 3 3 2 3 4 4
11 12 12 12 12 11 11 11 10 9 9 8 7 7 9 12 14 17 21 23 23 23 21 18 17 17 13 11 11 10 10 13 19 28 32 31 29 25 22 19 16 14 13 12 11 12 11 10 11 10 7 5 5 6 8 10 11 9 6 3 2 3 3 5 8 8 6 5 8 9 7 7 8 7 4 3 3 3 2 2 3 3 2 2 1 3 4 5
11 11 12 12 11 11 11 10 9 8 7 6 6 6 8 11 11 14 19 21 23 24 23 20 17 17 15 13 13 11 10 12 16 25 32 30 28 25 22 21 17 15 17 14 11 11 12 12 12 10 8 8 8 8 7 8 10 7 4 2 0 1 3 7 8 7 7 6 8 11 8 7 10 9 7 4 2 2 2 2 2 2 1 2 2 2 5 6
10 11 12 11 10 10 10 10 8 6 5 5 6 7 8 11 13 16 18 19 22 25 24 22 19 16 13 13 14 11 10 10 14 23 30 30 29 26 21 23 21 17 17 16 15 14 14 16 13 9 10 8 9 9 6 7 7 5 3 1 1 1 3 8 9 9 9 7 7 12 9 9 12 11 9 6 4 3 3 4 3 1 1 1 2 3 5 6
10 11 11 10 10 10 10 9 7 5 5 5 6 8 9 10 12 15 17 18 20 24 25 23 21 18 15 14 13 12 10 10 12 19 29 31 28 26 20 20 23 21 18 17 18 18 16 16 13 12 15 11 9 9 6 6 5 3 3 2 2 1 2 4 8 11 11 10 9 10 8 10 14 13 12 11 7 5 3 4 4 3 2 2 2 3 6 6
9 11 11 10 10 10 9 9 7 5 5 6 7 8 9 10 11 13 15 17 19 22 25 24 23 20 17 16 15 12 11 12 12 15 27 31 26 27 23 18 21 22 21 18 18 21 17 12 11 11 13 12 10 8 6 7 5 1 1 4 3 2 2 2 5 9 9 10 10 8 8 12 16 16 14 14 11 8 5 3 4 3 3 3 3 3 5 5
9 11 10 10 10 9 9 8 7 6 6 6 7 8 9 10 11 11 12 13 15 19 23 24 24 22 20 18 16 13 11 12 14 17 27 30 26 26 23 19 21 20 21 21 18 21 19 16 16 13 11 11 11 9 7 7 7 3 3 2 4 2 2 4 4 5 6 8 9 9 8 8 12 15 14 15 14 11 8 5 5 5 4 3 4 3 4 5
9 10 10 9 9 9 9 8 7 7 7 7 8 8 9 9 9 9 8 8 10 14 19 22 22 22 22 20 15 13 10 11 15 21 27 30 29 26 19 19 25 21 16 18 19 20 19 18 19 16 13 13 12 11 9 7 9 4 3 2 4 3 3 4 2 4 4 5 8 10 8 5 7 11 12 14 15 14 13 9 7 6 6 4 4 4 4 4
9 9 9 9 9 9 8 7 7 8 8 8 8 8 8 8 7 6 6 6 8 12 16 19 20 20 23 22 17 12 9 8 12 20 26 28 31 29 21 17 23 24 17 13 17 19 19 19 19 17 15 14 14 13 10 9 9 4 2 3 4 3 2 1 3 4 4 6 6 8 9 9 7 9 11 12 13 15 16 13 10 8 7 6 5 5 5 5
9 9 8 8 9 8 8 7 7 8 9 8 8 8 7 7 7 6 5 5 6 9 12 18 21 19 20 22 20 15 11 7 8 18 25 26 26 27 24 18 16 20 21 18 17 16 15 17 18 17 15 16 16 11 10 10 8 6 3 4 4 3 0 2 4 4 4 6 7 7 10 9 7 8 11 12 12 15 16 16 13 10 9 7 7 7 6 5
8 8 8 8 8 8 8 7 7 8 9 8 8 8 6 7 7 7 5 5 3 6 9 13 18 18 18 20 21 18 13 10 7 13 21 22 23 24 23 21 16 15 17 21 20 14 11 14 15 14 15 15 13 11 13 12 7 8 7 5 4 3 1 2 3 4 3 6 8 7 10 9 6 5 9 11 11 12 14 16 14 11 9 8 8 8 7 6
8 7 7 8 8 8 8 8 8 8 8 8 8 7 6 7 7 6 7 4 3 5 6 9 15 18 18 19 22 20 15 12 8 10 18 20 21 23 22 22 20 16 15 20 23 18 12 12 13 14 15 13 10 12 16 15 12 10 7 3 1 2 0 2 3 3 5 6 5 5 9 8 5 2 4 9 10 9 11 14 14 12 10 9 9 10 9 8
7 7 7 8 8 9 9 8 8 7 8 7 7 7 7 7 8 7 6 5 5 4 4 6 13 18 18 18 20 21 20 16 9 10 17 19 18 19 20 20 19 18 16 18 22 21 18 17 14 14 16 15 11 12 14 16 15 11 6 4 4 2 2 3 4 4 6 4 0 3 7 8 8 5 4 7 8 6 11 14 13 12 11 10 11 12 10 9
7 7 7 8 9 9 9 9 7 7 7 7 7 8 7 7 9 7 3 5 5 4 5 5 10 14 16 16 16 18 21 19 13 11 14 17 17 18 19 19 17 19 19 18 19 19 19 21 18 16 19 18 12 10 12 15 14 11 9 10 10 6 4 6 5 5 7 2 1 3 5 7 10 7 8 11 11 8 10 13 13 13 14 13 13 13 11 9
7 7 8 9 10 10 10 9 8 7 7 7 8 9 7 7 9 7 4 3 4 5 5 5 8 13 16 16 15 17 20 19 15 13 14 16 17 17 19 18 17 18 17 16 18 17 16 19 20 19 20 21 18 15 13 13 15 14 13 13 12 8 5 7 5 5 6 1 2 3 4 7 10 7 10 14 14 12 11 12 13 15 17 16 15 12 9 9
8 8 9 10 11 11 10 9 9 8 7 9 9 8 8 8 7 8 5 2 4 4 3 5 7 12 18 17 14 17 20 18 17 15 14 16 17 17 19 19 19 18 15 13 15 17 15 15 18 20 21 22 23 23 17 12 13 15 14 13 14 12 9 7 5 6 6 1 3 5 4 6 7 5 8 9 8 10 11 13 15 15 18 19 16 13 11 10
8 8 9 10 11 11 11 10 10 9 9 10 10 8 11 9 4 5 5 4 4 2 2 5 6 9 17 16 14 17 17 15 19 18 14 15 18 17 17 18 20 20 18 15 13 14 15 13 12 15 18 20 20 22 21 16 14 14 14 13 14 13 11 10 9 10 11 7 4 6 6 6 8 9 11 10 8 8 9 12 15 17 20 20 17 16 14 11
8 9 9 11 12 12 12 11 10 10 10 10 10 10 11 8 3 4 7 6 4 2 2 4 4 8 14 16 15 17 16 12 15 20 18 16 17 17 15 15 18 20 20 18 13 11 14 15 12 12 15 18 18 17 18 19 15 12 13 16 16 14 12 12 10 8 10 10 5 7 9 6 7 10 11 10 10 9 8 10 13 17 20 19 17 16 13 10
8 9 10 11 12 13 13 12 12 11 10 10 10 11 10 9 7 6 9 9 4 3 3 1 5 9 11 15 16 16 16 13 13 18 19 17 18 18 18 15 15 19 21 20 16 12 12 13 12 14 15 16 20 18 17 20 18 11 11 14 14 14 14 13 11 7 7 8 5 7 10 7 4 6 6 6 6 6 7 9 11 14 16 16 14 12 10 9
8 9 10 11 12 14 14 14 13 12 10 10 11 12 11 10 11 8 10 11 4 3 2 1 3 6 7 12 15 16 18 16 15 17 17 16 16 18 20 19 17 17 19 20 17 12 11 12 10 12 14 14 17 19 17 19 20 17 14 11 10 11 11 11 12 9 6 7 6 4 7 8 5 4 4 6 7 6 6 8 10 12 13 13 12 10 9 10
8 9 11 12 13 14 15 15 14 13 11 9 9 10 10 9 12 11 10 11 6 1 1 2 2 5 6 9 11 14 18 16 15 16 16 16 15 15 17 18 18 16 16 20 19 11 10 13 10 9 14 14 13 18 19 18 19 20 19 15 14 14 12 10 10 10 8 7 6 4 4 4 2 3 5 7 9 9 7 8 11 12 11 10 9 8 9 10
9 9 11 12 13 14 15 15 15 14 12 10 9 8 8 8 11 13 12 11 7 3 3 3 2 3 5 7 9 13 16 16 14 15 15 14 14 15 14 14 16 16 15 18 19 13 10 13 9 7 13 15 13 17 20 18 17 18 20 20 17 15 15 12 10 11 10 8 6 6 5 1 1 4 7 7 9 10 9 10 10 11 10 8 8 7 8 9
8 9 11 12 12 13 14 15 15 15 13 11 10 9 9 9 10 12 13 12 8 4 3 3 3 4 5 7 9 11 14 15 14 14 14 13 15 14 11 10 14 16 17 18 19 16 13 13 10 7 13 14 10 11 15 16 15 15 19 21 19 17 15 12 9 8 9 10 9 9 8 2 1 4 5 7 9 10 11 11 11 10 8 6 6 6 7 10
8 8 10 11 11 12 12 13 15 16 13 12 12 10 10 10 9 11 14 13 9 5 3 3 2 5 7 7 8 10 12 14 14 15 14 14 14 12 7 7 10 14 17 18 18 18 14 11 10 9 11 9 5 8 15 19 20 19 18 18 17 17 16 13 10 6 6 10 11 11 9 4 3 4 5 7 9 10 12 13 12 10 7 5 5 5 7 9
9 9 10 10 10 11 10 10 13 14 13 13 12 11 11 10 9 11 13 12 10 6 3 3 3 5 6 8 8 8 10 11 13 14 14 13 13 13 10 8 7 11 15 16 16 19 17 13 11 10 9 7 5 6 11 16 18 19 18 18 16 14 15 14 10 7 9 10 10 10 7 1 2 5 5 8 10 12 13 13 12 9 6 5 5 5 7 8
9 9 8 8 9 10 9 8 9 10 13 15 13 11 12 10 10 12 13 12 10 8 4 4 5 5 6 8 9 8 10 11 10 12 13 12 13 15 14 12 10 11 14 15 15 18 17 14 13 11 9 9 7 5 7 10 12 12 13 17 17 12 12 11 8 8 11 9 9 12 7 2 2 4 5 9 10 12 13 11 10 7 5 6 6 5 7 7
8 6 7 7 7 8 8 8 9 8 12 14 12 12 12 11 11 13 13 12 10 8 6 5 6 7 6 7 6 7 11 12 8 8 11 12 12 13 13 13 14 13 13 13 14 16 15 13 14 12 8 6 6 5 5 7 9 9 10 14 15 12 10 9 8 10 10 5 7 11 6 4 3 4 6 9 10 11 12 10 9 7 6 7 6 5 6 7
7 5 5 5 5 6 6 9 10 8 9 10 9 10 11 10 10 12 14 12 10 8 7 7 7 7 5 5 4 3 8 10 7 7 10 10 10 12 13 13 14 16 16 15 14 14 13 12 14 14 10 5 2 2 4 6 6 7 9 10 11 10 10 9 8 9 7 4 5 7 4 3 4 6 8 8 9 10 11 10 9 8 7 7 6 5 6 7
7 5 6 5 4 5 5 7 8 7 7 7 7 9 10 8 9 12 13 12 11 9 8 7 7 6 5 4 3 2 5 6 6 7 8 9 10 11 13 15 16 17 16 15 14 13 12 12 14 14 12 9 3 0 2 4 4 5 8 9 10 10 10 9 8 5 4 6 6 4 4 2 3 7 8 8 9 10 10 9 8 8 8 7 5 5 6 7
7 6 8 7 4 3 4 5 6 6 7 7 8 10 11 9 8 10 12 13 11 9 8 6 5 5 6 5 3 2 3 4 5 4 4 7 11 11 12 14 15 15 15 15 15 13 11 10 12 11 11 11 9 6 4 3 5 6 8 10 10 8 8 7 7 3 2 5 3 2 6 5 4 8 9 7 9 10 9 9 8 9 8 6 5 4 5 7
8 6 7 7 5 5 5 5 5 6 6 7 9 10 11 10 7 9 14 15 12 9 9 6 3 5 7 6 3 1 1 3 3 2 2 5 9 11 11 12 13 15 16 17 18 16 11 9 10 9 7 9 10 8 6 5 7 9 10 9 8 8 7 6 6 4 3 3 2 3 5 6 6 8 8 7 8 9 8 8 8 9 8 6 4 4 5 7
8 7 6 6 5 5 4 2 3 4 6 8 9 9 12 12 7 9 15 17 13 10 9 7 4 7 8 5 2 1 2 2 3 4 3 4 6 9 10 10 12 17 18 18 19 17 11 8 10 8 4 5 6 5 6 7 9 11 11 9 7 7 5 4 4 4 2 3 4 3 4 5 7 8 8 8 8 8 7 7 8 8 7 5 4 4 5 6
9 8 8 7 5 5 4 3 3 3 5 8 9 8 11 10 8 10 16 17 14 10 9 8 7 9 9 5 3 4 5 4 5 5 5 6 7 10 9 9 13 19 21 19 18 17 12 8 9 9 4 3 5 6 8 10 10 10 9 8 7 6 5 5 5 5 4 2 3 2 3 6 7 8 9 8 8 7 6 6 7 7 6 5 5 5 5 5
9 9 9 9 6 7 6 4 4 4 5 9 11 11 10 9 8 10 13 14 14 10 10 11 10 9 9 6 6 8 7 6 6 6 8 9 9 10 8 8 14 20 22 20 18 17 14 10 10 9 5 5 8 8 9 10 9 7 7 10 9 7 6 5 5 6 6 4 3 4 7 8 7 8 8 9 8 6 5 5 5 5 5 5 5 6 6 5
Wind_Direction
237 236 235 234 232 228 225 226 227 229 232 233 231 233 235 236 233 228 226 222 217 213 212 214 213 212 208 198 189 181 176 174 177 188 176 152 137 104 68 51 42 40 43 44 42 42 48 58 57 56 59 58 57 57 55 59 66 59 50 60 61 58 59 55 58 66 69 71 77 80 80 81 78 81 85 86 84 86 93 100 111 117 121 127 121 116 122 124
237 237 237 237 236 235 233 231 230 230 232 234 233 231 230 231 232 230 227 222 218 214 214 214 215 214 210 205 196 188 185 179 188 199 185 174 175 143 94 58 41 40 45 48 46 45 47 56 63 61 61 60 56 56 56 57 65 66 58 63 67 65 67 65 61 64 68 71 74 74 75 77 80 83 85 88 88 86 87 95 106 113 116 119 120 122 127 131
238 238 238 237 237 238 237 236 235 235 235 236 237 235 233 230 229 230 227 223 219 214 214 214 215 215 213 211 202 196 192 186 199 207 200 199 204 199 167 92 44 39 44 49 47 45 46 50 61 66 66 65 57 54 55 54 64 70 64 65 72 71 69 67 63 64 65 67 72 74 74 76 78 80 84 87 86 88 93 100 106 111 114 113 115 120 124 126
239 240 240 239 238 238 238 239 238 238 238 238 238 237 236 235 232 230 227 224 219 214 213 214 216 215 215 213 206 203 196 192 215 215 213 218 223 226 220 206 72 35 38 47 45 42 43 44 50 62 68 68 59 52 55 59 65 67 68 76 77 74 74 71 66 65 64 64 70 73 75 76 77 78 81 84 82 86 97 105 111 114 115 112 113 117 120 121
238 241 242 243 241 239 238 238 239 239 239 239 239 238 237 237 237 232 226 222 219 215 211 212 216 216 215 214 209 205 195 194 224 221 220 226 231 235 238 244 227 12 31 42 42 41 39 38 42 53 64 65 59 51 51 57 63 63 70 82 82 81 81 77 72 69 67 65 66 70 75 76 76 79 80 82 86 86 95 107 115 117 118 116 117 120 124 126
243 244 243 245 246 243 240 238 238 238 238 239 239 239 237 236 236 233 223 217 217 216 212 211 215 217 217 214 210 206 199 207 224 221 223 227 232 238 241 246 244 284 22 33 32 37 35 35 37 47 56 54 57 58 49 48 61 69 71 79 85 86 83 81 78 72 70 68 67 71 75 75 75 77 78 81 87 86 90 102 112 118 122 122 123 128 131 134
252 253 251 250 248 248 246 241 238 236 236 236 237 239 238 236 233 230 220 209 211 214 214 212 213 218 218 215 213 209 210 222 224 219 224 226 229 234 237 241 244 258 345 13 16 24 29 33 35 45 54 42 44 59 51 45 62 82 82 79 80 80 82 84 81 75 73 72 69 70 74 77 76 75 76 78 83 88 92 98 103 112 119 122 127 132 136 138
258 259 259 258 254 252 250 247 242 237 235 233 234 236 237 236 231 227 220 209 206 210 214 215 214 218 219 218 215 213 216 223 225 223 225 224 224 225 231 237 236 248 299 337 357 12 19 29 31 41 47 37 47 56 57 52 57 89 96 81 77 71 74 80 82 79 77 73 68 70 73 75 77 76 76 77 78 84 91 97 102 106 110 116 122 125 126 125
260 261 262 263 261 259 255 252 248 242 237 233 232 232 234 235 232 227 220 214 209 208 214 217 218 217 219 220 217 218 220 219 224 230 227 223 221 218 222 225 223 234 296 327 354 8 11 23 27 34 40 39 46 48 69 69 56 113 118 81 80 69 60 66 75 79 77 70 66 70 71 72 76 75 75 77 80 84 90 96 100 102 106 111 115 117 114 114
258 260 262 263 263 262 260 258 253 247 241 235 231 229 230 232 232 230 221 217 215 214 216 218 222 219 218 220 217 223 222 215 222 229 228 224 217 213 213 212 209 206 241 322 2 1 3 18 20 24 30 30 36 42 76 101 92 130 143 75 79 71 50 49 58 69 73 69 67 70 69 71 76 78 78 80 82 87 92 96 97 98 102 107 112 116 115 112
255 257 259 262 263 263 263 263 257 252 246 239 232 228 228 228 229 231 226 219 216 217 219 219 224 222 220 220 218 224 219 213 221 226 227 225 216 212 207 206 205 200 225 281 15 344 357 12 13 19 19 12 24 35 51 128 156 99 181 264 44 54 43 40 44 53 65 69 67 63 59 60 71 83 87 84 85 86 90 96 97 98 101 105 110 110 110 107
253 254 256 259 262 264 264 266 263 255 251 244 236 229 226 225 225 227 228 223 217 216 218 218 221 224 224 222 220 222 219 215 220 223 226 226 217 213 206 204 202 199 219 224 98 312 354 6 9 21 16 2 16 29 33 96 143 129 144 219 303 352 355 1 30 39 52 60 55 56 53 46 59 78 85 85 88 85 84 90 91 95 97 98 104 105 102 97
251 252 253 256 259 263 265 267 266 259 254 249 242 232 225 224 223 224 226 226 221 216 216 215 217 221 224 224 222 222 219 216 219 223 226 226 220 214 208 205 202 199 213 209 184 244 358 9 8 17 16 10 11 30 34 61 108 133 154 188 241 232 272 311 349 19 29 42 56 69 62 32 42 61 76 84 90 89 85 83 84 89 92 91 94 95 94 91
249 249 250 253 256 260 264 268 268 263 258 254 247 236 226 223 221 221 222 225 224 218 216 215 214 219 221 224 224 221 220 216 218 222 225 225 224 219 212 209 207 204 210 213 210 223 324 355 352 360 9 3 350 17 34 56 99 137 168 188 217 211 246 292 308 314 1 19 64 76 70 17 41 48 59 78 88 93 90 86 83 82 83 85 87 86 81 79
247 247 248 250 253 257 263 267 269 266 263 259 253 241 229 223 220 220 220 221 224 221 217 215 215 221 220 221 224 221 218 217 217 220 223 224 224 223 219 215 213 210 215 223 227 230 251 293 335 346 350 350 352 22 43 64 125 151 157 195 229 232 260 282 285 261 259 297 49 66 62 349 39 46 48 66 82 92 94 91 87 82 75 73 75 77 74 71
245 244 245 248 250 255 260 266 269 268 268 266 260 246 231 223 220 219 218 218 222 222 219 217 217 223 222 219 224 223 219 217 217 219 222 223 223 223 221 219 218 216 221 230 236 243 258 275 311 331 334 344 356 21 297 249 178 182 264 324 250 226 230 256 272 271 241 252 300 78 80 305 318 58 55 54 72 86 93 91 87 85 74 65 58 57 65 71
243 241 243 245 248 253 258 264 268 271 273 272 265 251 234 224 219 218 217 217 219 220 220 218 216 222 226 217 217 222 221 219 218 219 221 223 223 222 221 222 221 220 225 233 242 248 263 280 301 322 318 310 315 295 271 293 357 219 280 315 275 233 211 219 263 278 245 230 235 175 117 222 258 75 78 61 68 83 93 91 83 82 68 59 52 39 45 58
244 239 241 243 246 251 256 262 267 273 278 277 270 253 235 224 219 218 217 216 216 219 221 220 215 218 227 221 215 220 221 220 219 219 222 224 223 221 220 221 221 224 230 236 244 251 261 273 283 291 282 269 275 289 294 329 345 333 308 297 279 238 219 214 248 263 249 227 217 213 182 224 251 258 106 91 76 88 104 100 79 70 55 51 50 28 20 31
246 239 239 240 244 249 255 260 266 275 281 281 271 251 236 224 219 218 217 215 214 215 219 219 212 211 218 217 215 217 220 223 221 220 222 223 222 220 219 219 220 223 226 234 243 246 247 252 259 259 252 251 278 306 315 331 330 324 318 296 270 239 222 210 231 240 245 238 212 208 207 206 231 252 175 115 99 107 122 115 86 68 46 44 45 18 2 5
247 240 238 239 242 247 252 257 264 275 281 279 260 241 231 221 219 222 220 216 214 215 219 219 211 211 215 215 217 218 222 226 222 220 220 220 219 218 219 218 217 218 219 226 235 237 238 242 245 246 254 278 295 307 319 333 336 338 335 303 249 246 220 201 225 230 220 220 210 207 208 197 210 240 235 149 119 123 141 127 95 82 46 26 20 20 3 359
246 238 237 237 240 245 251 255 262 272 277 267 237 224 223 215 212 221 221 217 216 216 219 220 215 213 217 222 225 224 227 229 223 220 217 215 215 213 216 216 211 218 222 219 225 235 241 243 243 245 260 282 283 295 323 338 345 356 3 2 58 256 230 216 217 213 203 200 217 222 215 201 210 236 245 204 161 146 180 191 121 93 64 352 332 13 6 359
244 237 235 235 238 243 248 252 258 266 262 244 222 218 220 216 215 220 221 219 219 217 218 221 219 217 218 223 226 226 232 232 225 223 215 210 210 209 217 221 214 220 223 218 225 236 244 245 245 244 250 274 278 278 316 338 339 350 344 357 27 359 249 237 225 217 209 190 230 240 218 212 228 245 255 237 206 187 191 198 193 155 143 312 318 350 352 355
241 234 232 233 237 241 244 249 253 255 245 224 215 219 220 221 222 222 222 222 222 218 217 221 221 220 222 224 229 228 238 236 220 222 216 208 207 208 213 221 218 222 223 221 227 231 240 244 237 238 249 266 277 274 305 315 302 324 319 326 349 314 272 250 238 236 223 201 227 236 209 227 249 255 254 250 238 214 193 185 194 202 208 264 295 341 344 348
239 231 230 231 235 239 241 244 245 242 231 216 213 221 223 224 222 222 223 224 226 222 217 219 220 220 222 226 231 228 240 241 214 214 217 207 206 210 209 213 218 222 224 224 231 233 238 243 227 234 254 258 259 264 280 285 267 177 356 340 358 315 296 304 257 248 229 222 232 223 211 235 254 263 255 251 253 239 225 202 202 218 220 250 272 330 345 345
236 229 227 230 234 237 239 240 239 231 221 213 214 221 225 226 224 224 223 225 232 228 219 219 218 219 220 223 230 229 242 248 217 211 213 204 204 213 212 214 216 220 228 228 231 235 238 245 242 244 256 251 248 250 249 269 267 201 126 344 2 360 315 341 303 244 211 235 241 226 232 234 241 258 255 249 254 251 246 235 224 234 230 244 268 298 335 342
231 227 225 230 233 234 235 236 234 227 219 214 215 222 226 225 227 225 219 224 235 230 222 219 217 218 219 218 225 228 241 255 226 212 209 203 205 209 208 218 221 221 227 226 229 238 237 239 245 245 246 246 244 242 238 253 267 246 113 6 8 30 318 339 308 215 205 255 244 226 246 274 242 244 252 255 255 252 254 249 236 236 233 243 265 282 314 331
227 224 225 231 233 231 231 231 230 224 220 218 218 224 224 222 225 212 203 221 225 224 222 216 212 215 215 215 215 212 222 250 228 208 202 203 207 207 206 216 223 221 217 218 229 238 237 237 245 245 240 239 235 235 232 236 262 285 38 341 7 40 317 311 190 222 262 264 249 227 239 277 274 237 251 268 258 252 256 252 244 236 232 243 255 267 294 315
221 221 226 232 233 230 225 224 227 223 219 220 220 222 218 215 209 182 192 228 204 205 217 211 210 212 211 211 208 202 204 212 214 207 201 201 206 209 210 213 220 222 221 223 229 234 235 236 241 237 229 230 230 231 229 230 259 288 305 328 10 43 344 174 199 258 280 247 248 227 221 260 275 236 255 272 255 252 259 254 248 241 237 242 246 255 274 295
216 218 226 231 231 226 220 219 220 219 220 221 220 218 212 206 188 169 211 250 180 186 211 205 206 210 207 207 205 202 198 182 190 210 200 199 207 207 209 215 217 220 223 225 226 234 237 228 226 221 219 226 230 230 229 230 247 268 288 324 353 1 25 169 229 264 264 257 266 227 211 250 276 234 258 270 253 247 254 255 247 240 244 244 242 249 259 273
211 218 224 229 227 219 217 216 213 215 218 219 217 211 203 190 179 189 219 219 144 175 202 193 195 202 203 201 202 201 194 180 183 199 192 195 207 209 211 217 217 220 228 228 227 234 243 236 229 220 214 217 225 230 231 234 243 257 282 307 348 16 81 217 247 254 252 260 271 220 210 243 279 258 247 259 258 236 230 244 241 235 246 245 242 247 252 261
209 217 223 224 220 214 215 213 209 212 214 215 211 200 188 177 191 224 221 177 147 150 165 185 195 198 199 198 200 202 199 195 193 190 193 198 202 206 211 214 215 219 226 230 231 235 240 241 238 230 223 217 220 232 233 237 245 249 248 227 222 209 200 234 219 227 262 268 201 211 211 233 263 282 245 244 263 233 215 232 232 232 245 242 240 247 250 255
209 215 221 220 214 212 214 208 205 208 206 208 200 183 174 187 212 228 204 168 165 149 152 180 194 195 196 197 201 204 203 206 210 200 197 202 202 203 207 206 206 211 217 225 229 230 234 238 236 234 230 220 215 227 231 234 240 237 228 232 245 240 225 247 229 232 273 279 135 220 214 237 259 266 250 251 266 255 225 232 232 233 243 241 242 249 250 251
211 215 220 216 209 209 208 202 201 199 194 196 188 173 181 221 224 203 173 167 168 167 181 189 193 198 198 197 202 205 204 207 212 208 200 199 204 207 207 208 207 209 218 222 220 223 229 231 229 230 231 225 218 218 220 227 230 228 230 235 248 256 257 261 253 262 277 244 167 226 221 253 262 252 254 264 271 259 233 234 239 239 244 243 243 250 252 252
213 217 219 213 206 206 204 198 195 191 188 186 179 176 201 230 221 185 175 172 163 164 199 206 210 209 202 199 204 205 204 208 208 207 204 201 206 209 208 212 211 210 223 225 218 223 227 223 220 223 228 227 223 220 222 231 230 226 232 239 248 260 271 277 285 295 301 322 178 213 220 261 269 249 260 278 282 261 239 238 244 244 246 247 247 256 264 261
215 217 218 211 206 205 201 196 190 189 187 180 180 197 214 222 209 182 189 180 172 178 247 229 221 208 201 200 207 203 197 204 207 205 205 205 209 212 211 215 214 211 219 225 223 224 229 235 225 215 219 221 223 226 226 234 241 228 224 237 250 258 262 274 288 294 300 301 233 218 234 264 278 276 273 277 281 273 255 247 244 241 246 253 256 264 269 260
217 217 214 209 206 203 200 196 189 190 187 179 191 216 222 217 190 182 193 186 185 190 215 232 206 193 197 199 206 205 193 192 202 206 210 212 216 219 216 215 216 215 215 218 220 218 228 241 231 220 226 222 220 224 220 225 234 225 221 234 245 253 259 267 273 265 272 287 270 243 256 256 263 275 273 274 281 279 270 261 244 236 244 255 261 265 264 250
217 214 211 208 206 202 199 195 190 194 191 185 205 223 227 223 213 203 195 191 182 137 138 228 194 189 197 196 198 202 199 197 200 205 210 215 222 226 222 219 220 221 218 219 225 227 237 244 225 220 232 226 220 222 221 226 227 219 229 238 236 243 249 253 264 260 254 277 272 254 270 268 253 276 271 264 284 284 273 269 253 242 245 255 262 259 248 239
215 212 210 208 206 202 199 195 194 199 197 198 220 231 232 227 221 214 199 198 194 114 108 305 205 192 198 195 193 192 197 201 199 203 210 212 221 230 226 224 229 228 219 218 226 230 236 244 230 214 221 223 220 221 223 229 229 228 239 246 236 242 243 233 250 269 267 274 272 249 278 281 276 295 280 265 277 279 274 270 263 258 254 258 265 255 236 237
211 211 212 209 206 203 200 197 198 201 203 209 226 236 239 230 221 218 208 206 208 150 225 271 207 193 193 191 189 184 194 201 196 203 212 211 220 233 228 222 226 231 219 211 218 223 223 235 235 204 205 213 213 215 220 221 223 229 236 242 241 246 250 237 245 266 272 281 286 274 283 285 258 262 260 265 270 266 267 266 261 262 261 261 267 254 237 240
206 210 214 210 207 205 202 201 202 205 209 215 222 231 238 230 220 222 216 209 213 216 230 237 218 219 210 200 193 185 195 206 201 204 213 215 222 230 227 218 216 221 214 204 212 218 212 226 233 184 190 207 207 211 221 222 219 221 225 230 232 234 242 246 249 258 264 275 288 285 290 334 126 271 271 268 266 260 260 259 254 259 263 262 263 255 241 243
202 210 217 211 207 207 204 203 207 210 215 226 232 233 233 226 218 222 220 212 215 221 218 232 241 226 207 193 194 192 196 206 209 209 214 220 223 223 224 221 214 212 207 202 208 211 203 215 230 191 182 198 202 204 218 223 219 218 222 227 229 227 232 241 242 241 258 276 287 292 300 313 214 268 278 268 267 265 262 258 256 263 268 263 261 256 243 246
191 209 219 210 206 209 204 204 214 218 219 230 238 236 234 227 213 217 222 216 216 224 225 240 217 183 177 178 190 197 197 205 214 216 218 221 221 220 219 218 216 210 204 201 206 210 207 212 226 217 198 204 234 228 220 219 216 218 223 226 229 230 229 238 246 239 256 272 276 280 290 295 244 261 272 263 264 265 263 264 267 273 276 269 268 262 249 251
187 202 213 206 204 206 199 209 227 227 227 234 239 240 238 230 209 211 220 219 221 230 238 236 192 162 167 171 174 188 200 211 217 218 223 226 223 223 219 213 213 206 202 201 203 208 212 216 222 226 223 232 263 243 216 212 211 215 220 220 222 228 230 240 255 256 255 259 264 272 284 297 258 271 270 262 263 267 269 272 276 278 279 279 285 275 257 254
187 192 200 197 199 200 195 212 230 230 235 241 243 243 242 230 207 204 211 216 221 225 231 231 202 185 185 172 163 178 200 212 220 220 224 227 226 229 228 226 219 202 199 201 203 207 210 212 216 214 206 203 203 196 192 195 198 204 213 214 212 214 223 234 247 253 255 256 262 276 297 11 281 278 275 270 272 274 276 279 282 284 290 297 301 284 262 257
176 180 187 185 190 195 199 213 216 220 239 246 245 243 241 229 210 201 202 206 209 209 213 220 209 198 188 171 162 180 196 204 217 224 221 223 228 228 224 222 217 207 207 206 203 208 208 204 209 213 213 205 194 189 184 178 185 196 207 210 208 208 216 224 241 256 258 252 253 268 296 6 323 290 285 281 280 281 282 285 287 292 300 305 303 282 260 256
161 171 187 184 192 201 211 218 211 213 236 241 240 237 230 222 212 199 195 197 200 202 202 201 201 195 184 179 183 197 201 207 222 226 219 222 229 224 213 209 209 207 212 211 202 205 208 207 214 228 256 296 22 98 160 169 181 200 203 199 197 201 202 210 239 257 254 245 247 254 279 346 314 289 291 291 287 286 286 286 289 296 302 303 295 272 256 253
156 174 190 186 200 211 221 230 220 217 227 222 223 224 211 205 206 195 189 193 199 199 194 192 194 193 198 206 202 200 209 221 236 237 227 220 223 221 210 206 209 208 207 206 200 198 206 217 223 233 255 272 277 161 185 183 184 190 185 176 180 191 195 207 234 245 240 259 265 239 232 270 294 285 293 295 287 286 285 284 292 298 300 298 285 265 254 247
169 193 194 180 176 189 204 234 229 218 224 217 206 205 195 189 198 193 190 196 199 192 183 191 208 212 214 206 157 166 216 225 231 241 227 215 218 217 208 205 206 201 194 194 196 194 200 217 225 230 249 257 249 247 246 209 176 161 160 163 170 180 183 200 225 218 219 266 287 208 218 230 262 276 286 291 287 289 287 287 292 293 293 292 276 259 246 238
180 190 193 179 174 188 201 234 230 212 224 217 200 196 189 186 198 197 191 193 199 196 183 180 221 241 224 205 156 133 233 206 215 246 229 211 212 208 204 202 196 188 185 189 194 192 191 213 221 215 238 258 251 243 232 205 176 160 156 156 156 164 171 186 209 207 201 234 242 221 231 240 257 268 278 284 283 282 280 281 284 285 290 291 272 247 237 237
181 183 194 184 182 197 199 229 229 214 227 213 197 194 188 186 201 201 191 192 196 197 189 185 227 241 227 212 193 231 257 225 250 263 224 198 207 205 205 209 199 186 183 190 195 188 185 219 219 195 197 241 238 221 188 173 167 157 153 150 143 153 172 179 193 193 179 220 228 234 255 256 256 263 270 271 269 269 269 272 278 285 292 292 272 247 244 248
185 188 193 180 189 213 199 199 221 224 233 217 203 198 189 188 206 198 190 194 193 188 196 209 227 231 224 233 256 253 259 274 288 270 224 201 202 199 200 210 202 188 184 190 192 184 188 213 200 182 191 194 175 176 163 158 163 159 157 167 163 161 179 185 189 186 164 180 224 232 251 253 258 268 271 268 263 261 264 274 287 297 300 293 277 258 252 254
189 193 193 185 206 227 212 220 237 225 225 218 209 204 194 193 207 196 187 194 192 188 205 215 220 224 222 232 250 254 266 286 294 268 230 210 194 192 200 202 190 184 186 188 184 180 191 199 177 172 201 187 167 166 163 169 181 175 183 202 197 189 196 195 202 210 201 197 218 229 237 248 266 276 273 270 264 257 269 292 304 308 301 288 271 257 252 253
Height
3192 3192 3193 3194 3194 3195 3196 3196 3197 3197 3197 3198 3198 3199 3199 3199 3199 3199 3200 3200 3201 3201 3201 3202 3203 3204 3205 3206 3207 3208 3208 3209 3209 3210 3210 3210 3210 3210 3210 3210 3210 3209 3208 3207 3206 3205 3205 3205 3205 3205 3205 3205 3204 3204 3203 3203 3201 3200 3202 3203 3201 3201 3200 3199 3199 3197 3197 3196 3195 3194 3193 3192 3192 3191 3191 3190 3190 3190 3190 3189 3189 3189 3189 3189 3189 3191 3192 3193
3191 3191 3192 3192 3193 3194 3194 3195 3196 3196 3197 3197 3197 3198 3198 3199 3199 3199 3199 3199 3200 3201 3201 3202 3203 3204 3205 3206 3207 3208 3208 3209 3210 3210 3210 3210 3210 3210 3210 3210 3210 3210 3209 3208 3207 3207 3206 3206 3206 3206 3206 3206 3206 3205 3204 3204 3202 3202 3205 3204 3202 3202 3201 3200 3200 3198 3198 3197 3196 3195 3194 3194 3193 3193 3192 3192 3192 3191 3191 3191 3191 3190 3191 3191 3192 3192 3193 3194
3190 3190 3190 3191 3192 3192 3193 3194 3194 3195 3196 3196 3197 3197 3198 3198 3198 3198 3198 3198 3199 3200 3201 3201 3202 3203 3205 3206 3206 3207 3208 3209 3210 3210 3210 3210 3210 3210 3210 3211 3211 3211 3210 3209 3209 3208 3208 3207 3207 3207 3207 3207 3207 3206 3205 3205 3205 3204 3206 3205 3204 3204 3202 3202 3201 3200 3200 3199 3198 3197 3196 3196 3195 3194 3194 3194 3193 3193 3193 3192 3192 3192 3192 3193 3193 3194 3195 3195
3189 3189 3189 3190 3190 3191 3192 3192 3193 3194 3194 3195 3196 3196 3197 3197 3198 3197 3197 3197 3198 3199 3200 3201 3202 3203 3204 3205 3206 3207 3208 3210 3210 3210 3210 3210 3210 3211 3211 3211 3211 3211 3211 3210 3210 3210 3209 3209 3208 3208 3207 3208 3208 3208 3207 3207 3206 3206 3206 3206 3206 3205 3204 3203 3202 3201 3201 3200 3200 3199 3198 3198 3197 3196 3195 3195 3195 3195 3194 3194 3194 3194 3194 3194 3195 3195 3196 3197
3188 3188 3188 3189 3189 3189 3190 3191 3191 3192 3193 3194 3194 3195 3196 3197 3197 3197 3197 3197 3197 3198 3199 3201 3201 3202 3204 3205 3206 3207 3209 3210 3210 3209 3210 3210 3211 3211 3211 3212 3211 3212 3212 3211 3211 3211 3210 3210 3209 3209 3208 3209 3209 3209 3209 3208 3207 3207 3207 3207 3207 3207 3205 3204 3204 3203 3202 3202 3202 3201 3201 3200 3199 3198 3197 3197 3197 3196 3196 3196 3196 3196 3196 3196 3196 3196 3197 3197
3188 3188 3188 3188 3188 3188 3188 3189 3190 3190 3191 3192 3193 3194 3195 3196 3196 3196 3196 3196 3196 3197 3198 3200 3201 3202 3203 3204 3205 3206 3208 3209 3208 3209 3210 3210 3211 3211 3212 3212 3212 3212 3212 3212 3212 3212 3211 3211 3210 3210 3210 3210 3210 3210 3210 3209 3208 3209 3209 3208 3208 3208 3206 3205 3204 3204 3203 3204 3203 3203 3202 3201 3201 3200 3199 3198 3198 3197 3197 3197 3197 3197 3197 3197 3197 3197 3198 3198
3187 3187 3187 3187 3187 3187 3187 3187 3188 3189 3190 3191 3192 3193 3194 3195 3195 3196 3196 3196 3196 3196 3197 3199 3200 3201 3202 3204 3205 3206 3207 3207 3207 3208 3209 3210 3211 3211 3212 3212 3212 3213 3213 3213 3213 3212 3212 3212 3212 3211 3211 3212 3211 3211 3211 3210 3209 3211 3210 3209 3209 3208 3207 3206 3205 3205 3205 3205 3205 3205 3204 3203 3203 3202 3201 3200 3199 3198 3198 3198 3198 3199 3199 3198 3199 3199 3199 3199
3186 3186 3186 3186 3186 3186 3186 3186 3186 3187 3188 3189 3191 3192 3193 3193 3194 3195 3195 3195 3196 3196 3197 3198 3199 3200 3202 3203 3204 3205 3206 3206 3207 3208 3209 3210 3211 3211 3212 3212 3212 3213 3213 3213 3213 3213 3212 3213 3213 3212 3213 3213 3212 3211 3211 3211 3211 3211 3211 3209 3209 3209 3208 3207 3206 3206 3206 3206 3206 3206 3205 3205 3204 3203 3203 3202 3201 3200 3200 3199 3199 3199 3200 3200 3200 3200 3200 3200
3184 3185 3185 3185 3185 3185 3185 3185 3185 3185 3186 3187 3189 3190 3191 3192 3193 3194 3195 3195 3195 3196 3196 3197 3198 3199 3201 3202 3203 3205 3206 3205 3206 3207 3208 3210 3211 3211 3212 3212 3212 3213 3213 3213 3213 3213 3213 3213 3213 3213 3213 3213 3212 3211 3211 3212 3212 3212 3211 3210 3210 3209 3209 3208 3207 3206 3206 3206 3206 3207 3206 3206 3205 3205 3204 3203 3202 3202 3201 3201 3201 3201 3201 3201 3201 3201 3201 3201
3183 3183 3183 3183 3183 3183 3183 3183 3183 3184 3184 3185 3187 3188 3189 3190 3192 3193 3194 3195 3195 3195 3196 3197 3197 3198 3200 3201 3203 3204 3204 3204 3206 3206 3208 3209 3210 3211 3212 3212 3212 3213 3213 3213 3214 3213 3213 3213 3213 3213 3213 3212 3212 3212 3212 3212 3212 3211 3211 3210 3210 3210 3210 3209 3208 3208 3207 3207 3207 3207 3207 3207 3207 3206 3206 3205 3204 3204 3203 3203 3203 3202 3202 3202 3202 3202 3202 3202
3181 3182 3182 3182 3182 3182 3182 3182 3182 3182 3183 3183 3184 3186 3187 3189 3190 3191 3192 3193 3194 3195 3195 3196 3197 3197 3199 3200 3201 3202 3203 3204 3205 3206 3207 3208 3210 3211 3211 3212 3212 3213 3213 3214 3214 3213 3213 3213 3213 3212 3213 3213 3213 3212 3212 3212 3212 3211 3211 3210 3210 3210 3210 3210 3209 3209 3208 3208 3208 3208 3208 3208 3208 3207 3207 3206 3205 3205 3204 3204 3204 3204 3204 3203 3203 3203 3203 3203
3179 3180 3180 3180 3180 3181 3181 3181 3181 3181 3181 3181 3182 3184 3185 3187 3188 3190 3191 3192 3193 3194 3194 3195 3196 3196 3197 3198 3199 3200 3201 3203 3204 3205 3206 3208 3209 3210 3211 3212 3212 3213 3213 3214 3214 3213 3213 3213 3213 3213 3213 3213 3213 3213 3212 3212 3211 3211 3211 3211 3210 3210 3210 3210 3210 3210 3209 3209 3209 3209 3209 3209 3208 3208 3208 3207 3207 3206 3205 3205 3205 3205 3205 3205 3204 3204 3204 3203
3178 3178 3178 3179 3179 3179 3179 3179 3179 3179 3180 3180 3180 3181 3183 3185 3186 3188 3189 3191 3192 3193 3194 3194 3195 3196 3196 3197 3198 3199 3200 3202 3203 3204 3205 3207 3209 3210 3211 3212 3212 3213 3213 3213 3214 3213 3213 3213 3213 3213 3213 3213 3213 3213 3212 3211 3211 3212 3212 3212 3211 3211 3210 3210 3210 3210 3210 3209 3209 3209 3210 3210 3209 3209 3209 3208 3208 3207 3207 3206 3206 3206 3206 3205 3205 3205 3204 3204
3176 3176 3177 3177 3177 3178 3178 3178 3178 3178 3178 3178 3179 3179 3181 3182 3184 3186 3188 3189 3191 3192 3193 3194 3194 3195 3195 3196 3196 3197 3199 3201 3202 3203 3204 3206 3208 3209 3211 3211 3212 3212 3213 3213 3213 3213 3213 3213 3213 3214 3213 3213 3213 3212 3211 3211 3211 3212 3213 3212 3212 3212 3210 3210 3210 3210 3210 3210 3209 3209 3211 3211 3209 3209 3209 3208 3208 3208 3208 3207 3207 3207 3207 3206 3206 3205 3205 3205
3174 3175 3175 3175 3176 3176 3176 3176 3177 3177 3177 3177 3177 3177 3179 3180 3182 3184 3186 3188 3189 3191 3192 3193 3194 3194 3194 3195 3195 3196 3198 3199 3200 3201 3202 3204 3206 3209 3210 3211 3211 3212 3212 3213 3213 3213 3213 3213 3214 3214 3213 3213 3212 3212 3212 3212 3212 3213 3212 3211 3212 3211 3210 3210 3209 3210 3210 3210 3210 3210 3211 3211 3210 3209 3208 3208 3208 3208 3209 3209 3208 3208 3207 3207 3206 3206 3206 3205
3173 3173 3173 3174 3174 3175 3175 3175 3175 3175 3175 3175 3175 3176 3177 3178 3180 3182 3184 3186 3188 3189 3191 3192 3193 3193 3194 3194 3194 3195 3196 3197 3198 3199 3201 3203 3205 3207 3209 3210 3211 3212 3212 3212 3213 3213 3213 3213 3214 3214 3213 3213 3213 3213 3214 3212 3212 3212 3212 3211 3211 3211 3210 3209 3208 3209 3210 3210 3210 3210 3211 3211 3210 3209 3208 3208 3208 3208 3209 3209 3209 3208 3207 3207 3207 3207 3206 3206
3171 3172 3172 3172 3173 3173 3173 3174 3174 3174 3174 3174 3174 3174 3175 3176 3178 3180 3182 3184 3186 3188 3189 3190 3191 3192 3192 3193 3193 3194 3194 3195 3196 3198 3200 3201 3204 3206 3208 3209 3210 3211 3212 3212 3213 3213 3213 3213 3213 3213 3213 3214 3214 3214 3213 3210 3209 3210 3211 3210 3210 3210 3210 3209 3208 3208 3209 3210 3210 3210 3211 3211 3209 3209 3208 3208 3208 3208 3209 3209 3208 3208 3207 3207 3207 3206 3206 3206
3170 3170 3170 3171 3171 3172 3172 3172 3173 3173 3173 3172 3172 3172 3173 3175 3176 3178 3180 3182 3184 3186 3188 3189 3190 3191 3191 3191 3192 3193 3193 3194 3195 3197 3198 3200 3202 3205 3207 3209 3210 3211 3212 3212 3212 3213 3213 3213 3214 3214 3214 3214 3214 3214 3212 3209 3209 3210 3209 3209 3209 3209 3209 3209 3208 3207 3208 3209 3210 3211 3211 3211 3209 3208 3208 3208 3208 3208 3209 3208 3208 3207 3207 3206 3207 3206 3205 3205
3168 3169 3169 3169 3170 3170 3171 3171 3171 3172 3171 3171 3171 3171 3172 3173 3175 3177 3178 3180 3182 3184 3185 3186 3188 3189 3190 3190 3191 3191 3192 3193 3194 3195 3197 3198 3201 3203 3206 3207 3209 3210 3212 3212 3212 3213 3214 3214 3214 3214 3213 3212 3213 3213 3212 3210 3210 3209 3208 3207 3208 3208 3208 3209 3208 3207 3207 3208 3209 3211 3211 3211 3209 3208 3208 3208 3208 3208 3208 3208 3207 3207 3206 3206 3206 3206 3205 3205
3167 3167 3167 3168 3169 3169 3169 3170 3170 3170 3170 3170 3170 3171 3171 3172 3174 3175 3176 3178 3180 3181 3183 3184 3186 3187 3188 3189 3190 3191 3191 3192 3192 3193 3195 3197 3200 3202 3204 3206 3208 3210 3211 3213 3213 3212 3213 3214 3213 3212 3211 3211 3212 3212 3211 3211 3209 3208 3207 3207 3207 3207 3207 3207 3207 3206 3207 3208 3209 3210 3210 3210 3209 3207 3207 3207 3207 3208 3208 3208 3207 3207 3206 3205 3205 3205 3205 3204
3166 3166 3166 3167 3167 3167 3168 3168 3169 3169 3169 3169 3169 3170 3170 3171 3173 3174 3174 3176 3178 3179 3181 3183 3184 3186 3187 3188 3188 3189 3190 3190 3191 3191 3193 3196 3198 3201 3203 3204 3207 3208 3210 3212 3212 3211 3211 3212 3212 3211 3211 3211 3212 3211 3210 3210 3209 3207 3207 3207 3207 3207 3207 3206 3206 3206 3206 3208 3209 3209 3209 3210 3209 3207 3206 3207 3207 3207 3208 3208 3207 3207 3206 3205 3205 3205 3205 3204
3164 3164 3165 3165 3166 3166 3167 3167 3168 3168 3168 3168 3169 3169 3170 3170 3171 3172 3173 3174 3176 3177 3179 3181 3183 3185 3186 3186 3187 3188 3189 3189 3190 3189 3191 3194 3197 3200 3202 3203 3206 3208 3208 3210 3210 3210 3211 3211 3211 3211 3211 3211 3211 3210 3210 3210 3209 3208 3207 3207 3207 3207 3207 3205 3205 3205 3205 3208 3209 3207 3208 3209 3207 3207 3206 3206 3206 3206 3207 3207 3207 3206 3206 3205 3205 3205 3205 3204
3163 3163 3164 3164 3165 3165 3166 3166 3167 3167 3168 3168 3168 3168 3169 3169 3170 3171 3172 3173 3174 3175 3177 3179 3181 3183 3184 3185 3185 3186 3187 3187 3189 3189 3189 3192 3195 3199 3200 3201 3204 3206 3207 3208 3209 3209 3209 3209 3209 3209 3210 3210 3211 3210 3210 3209 3208 3208 3208 3206 3206 3207 3206 3205 3205 3205 3205 3206 3207 3206 3209 3208 3206 3206 3205 3205 3205 3205 3205 3206 3206 3206 3205 3205 3205 3205 3204 3204
3162 3162 3162 3163 3164 3164 3164 3165 3166 3167 3167 3167 3167 3167 3168 3168 3169 3169 3170 3172 3172 3173 3175 3177 3179 3181 3182 3183 3183 3185 3186 3185 3187 3188 3187 3191 3195 3196 3198 3200 3203 3204 3205 3206 3207 3207 3208 3207 3207 3208 3209 3210 3210 3210 3210 3209 3207 3207 3208 3207 3206 3206 3206 3205 3204 3204 3204 3205 3205 3206 3208 3207 3205 3204 3204 3203 3204 3204 3204 3204 3205 3204 3205 3205 3204 3204 3204 3204
3160 3161 3161 3162 3162 3163 3163 3164 3165 3166 3166 3166 3166 3166 3167 3167 3168 3169 3170 3171 3172 3172 3174 3175 3177 3179 3180 3181 3182 3183 3184 3184 3185 3185 3185 3189 3192 3193 3197 3199 3200 3202 3203 3205 3206 3206 3207 3205 3205 3207 3209 3209 3210 3210 3210 3209 3206 3205 3206 3206 3206 3206 3205 3204 3203 3203 3205 3205 3205 3206 3205 3203 3203 3203 3202 3202 3202 3202 3203 3203 3203 3203 3204 3204 3204 3204 3203 3203
3159 3160 3160 3161 3161 3162 3162 3163 3164 3164 3165 3165 3166 3166 3166 3167 3167 3168 3169 3171 3171 3171 3172 3173 3175 3177 3177 3179 3181 3182 3183 3182 3182 3182 3183 3186 3189 3192 3195 3196 3197 3200 3202 3203 3204 3204 3204 3203 3204 3207 3209 3209 3209 3209 3208 3208 3206 3204 3204 3205 3205 3205 3204 3204 3203 3203 3204 3204 3203 3205 3203 3201 3202 3202 3200 3201 3200 3201 3201 3202 3202 3202 3202 3203 3203 3203 3202 3202
3158 3159 3159 3160 3160 3161 3161 3162 3163 3163 3164 3164 3165 3165 3166 3166 3167 3168 3169 3170 3168 3168 3169 3171 3172 3173 3175 3177 3179 3181 3182 3181 3180 3180 3182 3184 3187 3189 3193 3194 3196 3198 3199 3201 3202 3202 3201 3202 3203 3205 3207 3208 3208 3208 3207 3207 3206 3204 3203 3205 3205 3205 3205 3204 3204 3204 3204 3204 3203 3204 3204 3202 3201 3200 3199 3199 3200 3199 3200 3200 3201 3201 3201 3202 3202 3202 3202 3201
3157 3158 3158 3159 3159 3160 3161 3161 3162 3162 3163 3163 3164 3165 3165 3166 3167 3168 3169 3167 3164 3166 3167 3168 3170 3171 3173 3175 3177 3179 3180 3180 3180 3180 3180 3183 3186 3188 3191 3194 3196 3197 3198 3199 3200 3200 3200 3201 3202 3203 3205 3206 3206 3206 3205 3205 3206 3204 3204 3205 3205 3205 3205 3204 3205 3205 3204 3204 3202 3202 3204 3202 3199 3198 3198 3198 3198 3198 3198 3198 3199 3200 3200 3200 3201 3201 3200 3200
3156 3157 3157 3158 3159 3159 3160 3160 3161 3161 3162 3163 3163 3164 3165 3166 3166 3167 3168 3165 3163 3165 3166 3166 3168 3170 3172 3174 3176 3178 3179 3179 3180 3179 3180 3183 3185 3187 3190 3192 3194 3196 3196 3197 3199 3199 3197 3198 3199 3201 3203 3204 3204 3203 3203 3204 3205 3204 3204 3204 3204 3204 3204 3204 3205 3204 3204 3203 3200 3200 3202 3200 3197 3196 3197 3197 3197 3197 3197 3197 3198 3198 3199 3199 3199 3199 3199 3198
3155 3156 3156 3157 3158 3158 3159 3159 3160 3160 3161 3162 3163 3164 3164 3165 3166 3167 3166 3163 3163 3164 3165 3165 3167 3168 3170 3172 3174 3176 3178 3179 3178 3179 3181 3182 3183 3186 3188 3190 3193 3195 3195 3195 3196 3196 3195 3195 3197 3198 3200 3201 3202 3201 3201 3202 3203 3203 3204 3204 3204 3204 3204 3204 3204 3204 3203 3200 3199 3199 3201 3200 3197 3196 3197 3196 3196 3197 3197 3196 3196 3197 3197 3198 3198 3198 3198 3197
3154 3155 3155 3156 3157 3157 3158 3158 3159 3160 3160 3161 3162 3163 3164 3165 3166 3165 3162 3162 3163 3164 3164 3165 3166 3167 3169 3171 3173 3175 3176 3178 3178 3179 3180 3181 3183 3185 3186 3188 3191 3193 3194 3194 3194 3194 3194 3195 3195 3197 3197 3198 3199 3200 3200 3200 3201 3203 3204 3204 3204 3203 3203 3203 3202 3203 3200 3197 3197 3199 3200 3200 3197 3196 3196 3195 3194 3195 3195 3195 3195 3196 3196 3196 3196 3196 3196 3196
3153 3154 3154 3155 3156 3156 3157 3158 3158 3159 3160 3161 3162 3163 3164 3165 3165 3163 3161 3162 3163 3164 3164 3165 3165 3166 3168 3170 3173 3174 3175 3177 3177 3179 3180 3181 3182 3183 3184 3186 3188 3189 3190 3191 3192 3193 3193 3193 3194 3195 3195 3196 3198 3199 3199 3199 3200 3202 3203 3203 3201 3199 3201 3201 3198 3199 3197 3195 3197 3198 3199 3199 3197 3196 3195 3193 3193 3194 3194 3194 3194 3195 3194 3195 3195 3195 3195 3195
3152 3153 3153 3154 3155 3156 3156 3157 3158 3158 3159 3160 3161 3162 3164 3165 3163 3161 3162 3162 3162 3163 3164 3164 3164 3165 3167 3169 3171 3172 3174 3176 3177 3178 3179 3180 3181 3182 3183 3184 3186 3187 3187 3188 3189 3190 3190 3191 3192 3193 3193 3194 3195 3197 3197 3198 3199 3200 3200 3201 3198 3196 3197 3197 3194 3195 3195 3195 3197 3197 3198 3197 3194 3194 3193 3192 3192 3193 3193 3193 3193 3194 3193 3193 3193 3194 3194 3194
3151 3152 3152 3153 3154 3155 3156 3156 3157 3158 3158 3159 3161 3162 3164 3163 3160 3160 3162 3162 3162 3162 3163 3163 3163 3164 3165 3168 3170 3171 3172 3174 3175 3177 3178 3179 3180 3180 3181 3182 3183 3185 3186 3186 3187 3187 3187 3187 3188 3189 3191 3191 3192 3193 3195 3197 3197 3198 3198 3198 3197 3195 3195 3194 3192 3192 3192 3194 3196 3197 3196 3194 3191 3191 3191 3191 3191 3191 3192 3192 3192 3192 3192 3191 3192 3192 3193 3193
3150 3151 3151 3152 3153 3154 3155 3156 3156 3157 3158 3159 3160 3162 3163 3162 3160 3161 3162 3161 3161 3162 3162 3162 3163 3163 3165 3167 3168 3169 3171 3173 3174 3176 3177 3177 3178 3178 3179 3180 3181 3183 3185 3185 3184 3185 3185 3184 3184 3186 3187 3189 3190 3192 3194 3196 3196 3196 3197 3197 3196 3195 3195 3193 3192 3193 3193 3192 3193 3194 3193 3191 3190 3190 3190 3190 3190 3191 3191 3191 3191 3191 3190 3190 3191 3191 3191 3191
3149 3149 3150 3151 3152 3153 3154 3155 3156 3157 3157 3158 3160 3162 3161 3160 3160 3160 3160 3160 3161 3161 3161 3162 3162 3163 3164 3166 3167 3168 3170 3171 3172 3174 3175 3176 3176 3176 3177 3178 3179 3180 3182 3183 3183 3183 3184 3183 3183 3185 3185 3187 3189 3191 3192 3193 3193 3193 3194 3194 3193 3194 3194 3193 3192 3193 3193 3192 3190 3190 3189 3189 3189 3189 3188 3189 3189 3189 3190 3190 3190 3190 3189 3189 3189 3190 3190 3190
3148 3148 3149 3150 3151 3152 3153 3154 3155 3156 3157 3158 3160 3160 3160 3159 3159 3159 3159 3160 3160 3160 3160 3161 3161 3162 3163 3164 3165 3167 3169 3170 3171 3172 3173 3174 3174 3174 3175 3177 3177 3178 3179 3181 3182 3182 3182 3181 3181 3183 3184 3185 3186 3188 3189 3190 3191 3192 3192 3191 3191 3193 3193 3193 3191 3190 3190 3190 3187 3187 3188 3187 3188 3187 3187 3188 3188 3188 3188 3188 3189 3189 3188 3188 3188 3189 3189 3189
3147 3147 3148 3149 3150 3151 3152 3153 3154 3155 3156 3158 3159 3158 3158 3159 3158 3158 3159 3159 3160 3160 3160 3161 3161 3161 3162 3162 3163 3166 3167 3168 3169 3171 3171 3172 3171 3171 3173 3175 3175 3175 3177 3180 3181 3181 3181 3181 3179 3181 3183 3183 3184 3186 3186 3187 3188 3190 3190 3189 3190 3191 3191 3192 3191 3188 3188 3187 3184 3184 3186 3186 3187 3187 3186 3187 3187 3187 3187 3187 3187 3188 3187 3187 3188 3188 3188 3188
3146 3147 3147 3148 3149 3150 3151 3152 3153 3155 3156 3157 3159 3158 3157 3158 3158 3158 3158 3158 3159 3159 3160 3161 3160 3160 3161 3161 3162 3164 3166 3166 3168 3169 3169 3169 3169 3169 3170 3172 3173 3174 3175 3178 3179 3180 3181 3180 3178 3178 3181 3181 3182 3184 3184 3185 3186 3187 3188 3189 3190 3190 3189 3189 3189 3187 3186 3185 3183 3182 3183 3184 3186 3187 3186 3186 3186 3186 3186 3186 3186 3186 3186 3187 3187 3188 3188 3187
3145 3146 3146 3147 3148 3149 3150 3152 3153 3154 3156 3157 3157 3157 3157 3156 3157 3157 3157 3158 3158 3159 3159 3160 3160 3160 3161 3161 3162 3163 3164 3165 3166 3167 3168 3167 3168 3168 3169 3170 3172 3173 3174 3176 3178 3179 3180 3180 3177 3176 3179 3180 3180 3180 3181 3182 3183 3184 3186 3187 3187 3188 3187 3187 3187 3186 3186 3184 3182 3181 3180 3182 3185 3185 3185 3185 3185 3185 3185 3185 3185 3185 3186 3186 3187 3187 3187 3186
3144 3145 3146 3146 3148 3149 3150 3151 3153 3153 3155 3156 3156 3155 3155 3155 3155 3156 3156 3157 3158 3158 3158 3158 3158 3159 3159 3160 3161 3162 3163 3164 3165 3166 3166 3166 3166 3167 3167 3168 3169 3171 3173 3174 3176 3177 3178 3179 3177 3176 3177 3178 3177 3178 3179 3179 3180 3182 3183 3183 3184 3185 3186 3186 3185 3185 3185 3184 3182 3181 3179 3180 3183 3184 3184 3184 3184 3184 3184 3184 3184 3185 3185 3186 3186 3187 3187 3186
3143 3145 3145 3146 3147 3148 3149 3151 3151 3152 3154 3154 3154 3153 3153 3154 3154 3155 3155 3156 3157 3157 3157 3157 3157 3158 3158 3159 3160 3161 3162 3163 3164 3164 3165 3165 3165 3166 3167 3167 3168 3169 3171 3173 3175 3176 3177 3178 3177 3176 3175 3175 3175 3176 3177 3177 3178 3180 3180 3180 3182 3182 3183 3184 3182 3183 3184 3184 3183 3182 3179 3180 3182 3183 3183 3183 3183 3183 3183 3183 3183 3184 3185 3185 3186 3186 3186 3185
3143 3144 3144 3145 3146 3147 3149 3150 3150 3151 3152 3152 3152 3152 3152 3152 3153 3154 3154 3155 3156 3156 3157 3157 3157 3157 3158 3158 3159 3160 3161 3162 3162 3163 3163 3164 3165 3166 3166 3167 3167 3169 3170 3172 3173 3174 3175 3177 3177 3176 3175 3175 3175 3175 3175 3175 3176 3178 3178 3178 3180 3180 3181 3181 3181 3181 3182 3182 3182 3180 3178 3180 3182 3182 3183 3183 3183 3183 3182 3182 3183 3183 3184 3185 3185 3185 3185 3184
3142 3143 3143 3144 3145 3146 3148 3150 3150 3150 3150 3150 3150 3151 3151 3151 3152 3152 3153 3155 3155 3156 3156 3156 3157 3157 3157 3157 3158 3158 3159 3160 3161 3161 3162 3163 3164 3164 3165 3166 3167 3168 3169 3171 3172 3172 3173 3174 3175 3174 3173 3173 3174 3173 3174 3174 3175 3176 3176 3176 3177 3178 3180 3180 3180 3181 3180 3179 3180 3179 3178 3180 3181 3181 3183 3183 3182 3182 3181 3181 3182 3182 3183 3184 3184 3184 3184 3184
3142 3143 3143 3144 3145 3146 3147 3148 3148 3149 3149 3148 3149 3149 3149 3150 3151 3151 3152 3154 3154 3155 3155 3156 3156 3156 3156 3157 3157 3157 3158 3159 3159 3160 3160 3161 3162 3162 3163 3164 3165 3167 3168 3169 3170 3171 3172 3173 3173 3171 3169 3169 3170 3170 3172 3173 3174 3175 3175 3174 3175 3177 3179 3179 3180 3180 3178 3178 3180 3179 3178 3181 3181 3181 3182 3182 3182 3181 3181 3181 3181 3182 3182 3183 3183 3183 3183 3183
3142 3143 3143 3144 3144 3145 3145 3145 3146 3147 3147 3147 3148 3148 3148 3150 3150 3151 3152 3153 3154 3154 3155 3155 3155 3155 3156 3156 3156 3157 3157 3158 3158 3158 3159 3160 3160 3160 3161 3162 3163 3165 3167 3168 3169 3171 3171 3171 3172 3171 3169 3169 3169 3170 3171 3172 3173 3174 3174 3174 3175 3176 3177 3179 3179 3179 3178 3178 3179 3179 3180 3181 3181 3181 3182 3181 3181 3180 3180 3180 3181 3181 3181 3182 3182 3182 3182 3182
3142 3143 3143 3144 3144 3144 3144 3144 3144 3145 3146 3146 3147 3147 3147 3149 3150 3150 3151 3152 3153 3153 3154 3154 3154 3155 3156 3156 3156 3156 3157 3157 3157 3157 3157 3158 3159 3159 3159 3160 3161 3162 3164 3166 3168 3170 3171 3171 3171 3171 3170 3170 3170 3170 3171 3172 3173 3174 3174 3174 3175 3175 3177 3179 3178 3177 3178 3178 3177 3178 3180 3181 3181 3181 3181 3181 3180 3180 3179 3180 3180 3180 3181 3181 3181 3181 3181 3181
3141 3142 3142 3142 3144 3144 3144 3144 3143 3144 3144 3144 3145 3145 3146 3148 3150 3150 3151 3152 3152 3153 3153 3154 3154 3154 3155 3155 3155 3156 3156 3156 3156 3156 3156 3156 3157 3157 3158 3158 3159 3161 3163 3165 3166 3168 3170 3170 3170 3170 3170 3170 3170 3171 3171 3172 3173 3174 3174 3174 3175 3176 3177 3178 3177 3176 3177 3178 3177 3178 3180 3181 3181 3181 3180 3180 3180 3179 3179 3179 3179 3179 3180 3180 3180 3180 3180 3180
3140 3140 3141 3141 3143 3143 3143 3143 3142 3143 3144 3144 3144 3145 3146 3147 3149 3149 3150 3151 3152 3152 3153 3154 3155 3154 3154 3154 3155 3155 3155 3155 3155 3155 3155 3155 3155 3156 3157 3157 3158 3160 3161 3163 3165 3166 3168 3169 3169 3170 3170 3170 3170 3171 3171 3172 3173 3173 3174 3175 3175 3176 3177 3176 3176 3176 3177 3178 3178 3179 3179 3180 3180 3180 3180 3180 3179 3179 3179 3179 3179 3179 3179 3179 3179 3179 3179 3179
3139 3140 3140 3141 3142 3142 3142 3142 3142 3143 3143 3143 3144 3145 3145 3146 3148 3148 3148 3149 3150 3151 3152 3153 3154 3153 3153 3153 3154 3154 3154 3154 3154 3154 3153 3154 3154 3155 3156 3156 3157 3158 3160 3162 3163 3165 3167 3168 3168 3169 3170 3170 3170 3170 3171 3173 3173 3173 3174 3175 3176 3176 3176 3176 3176 3177 3178 3178 3178 3179 3179 3179 3180 3179 3179 3179 3178 3178 3178 3178 3178 3178 3178 3179 3179 3179 3179 3178
3138 3139 3139 3140 3142 3141 3141 3142 3142 3142 3143 3144 3144 3144 3145 3146 3146 3146 3147 3148 3149 3150 3151 3151 3152 3152 3152 3153 3153 3153 3153 3153 3152 3152 3152 3152 3153 3153 3154 3155 3155 3156 3158 3160 3162 3164 3166 3167 3167 3169 3170 3170 3170 3171 3172 3173 3174 3174 3174 3175 3176 3176 3176 3176 3176 3177 3178 3179 3179 3179 3180 3179 3179 3179 3178 3178 3177 3177 3177 3177 3177 3177 3178 3178 3178 3178 3177 3177
3137 3138 3138 3140 3141 3141 3141 3141 3141 3142 3143 3143 3143 3143 3144 3145 3145 3145 3146 3147 3148 3149 3149 3150 3150 3151 3152 3152 3152 3152 3152 3151 3151 3151 3150 3151 3151 3152 3152 3153 3154 3156 3157 3159 3161 3163 3165 3166 3167 3169 3170 3170 3170 3171 3172 3173 3173 3173 3174 3174 3175 3175 3176 3176 3176 3176 3177 3178 3179 3179 3179 3179 3178 3178 3177 3177 3176 3176 3177 3177 3177 3177 3177 3177 3177 3177 3176 3176